Time,TemperatureF,DewpointF,PressureIn,WindDirection,WindDirectionDegrees,WindSpeedMPH,WindSpeedGustMPH,Humidity,HourlyPrecipIn,Conditions,Clouds,dailyrainin,SoftwareType,DateUTC
2013-03-15 00:02:00,28.0,25.0,-100.00,North,0,6.0,7.0,89,0.00,,,0.00,,2013-03-15 05:02:00,
2013-03-15 00:12:00,28.0,25.0,-100.00,North,0,6.0,8.0,90,0.00,,,0.00,,2013-03-15 05:12:00,
2013-03-15 00:22:00,28.0,27.0,-100.00,North,10,7.0,11.0,90,0.00,,,0.00,,2013-03-15 05:22:00,
2013-03-15 00:32:00,28.0,27.0,-100.00,North,5,9.0,12.0,90,0.00,,,0.00,,2013-03-15 05:32:00,
2013-03-15 00:42:00,28.0,27.0,-100.00,North,10,8.0,12.0,90,0.00,,,0.00,,2013-03-15 05:42:00,
2013-03-15 00:52:00,28.0,25.0,-100.00,NNE,20,8.0,12.0,90,0.00,,,0.00,,2013-03-15 05:52:00,
2013-03-15 01:02:00,28.0,25.0,-100.00,NNE,20,7.0,11.0,90,0.00,,,0.00,,2013-03-15 06:02:00,
2013-03-15 01:12:00,28.0,25.0,-100.00,North,10,9.0,12.0,90,0.00,,,0.00,,2013-03-15 06:12:00,
2013-03-15 01:22:00,28.0,25.0,-100.00,NNW,340,8.0,11.0,90,0.00,,,0.00,,2013-03-15 06:22:00,
2013-03-15 01:32:00,28.0,25.0,-100.00,NNW,340,7.0,10.0,90,0.00,,,0.00,,2013-03-15 06:32:00,
2013-03-15 01:42:00,28.0,25.0,-100.00,NNW,340,6.0,9.0,90,0.00,,,0.00,,2013-03-15 06:42:00,
2013-03-15 01:52:00,28.0,25.0,-100.00,North,0,7.0,9.0,90,0.00,,,0.00,,2013-03-15 06:52:00,
2013-03-15 02:02:00,28.0,25.0,-100.00,North,0,9.0,11.0,90,0.00,,,0.00,,2013-03-15 07:02:00,
2013-03-15 02:12:00,28.0,25.0,-100.00,NNW,340,7.0,10.0,90,0.00,,,0.00,,2013-03-15 07:12:00,
2013-03-15 02:22:00,28.0,25.0,-100.00,NNW,335,9.0,11.0,90,0.00,,,0.00,,2013-03-15 07:22:00,
2013-03-15 02:32:00,28.0,25.0,-100.00,NNW,340,7.0,11.0,90,0.00,,,0.00,,2013-03-15 07:32:00,
2013-03-15 02:42:00,28.0,25.0,-100.00,NNW,345,7.0,10.0,90,0.00,,,0.00,,2013-03-15 07:42:00,
2013-03-15 02:52:00,28.0,25.0,-100.00,NNW,340,7.0,9.0,90,0.00,,,0.00,,2013-03-15 07:52:00,
2013-03-15 03:02:00,28.0,25.0,-100.00,North,0,7.0,12.0,90,0.00,,,0.00,,2013-03-15 08:02:00,
2013-03-15 03:12:00,28.0,25.0,-100.00,North,0,7.0,9.0,90,0.00,,,0.00,,2013-03-15 08:12:00,
2013-03-15 03:22:00,28.0,25.0,-100.00,NNE,20,7.0,12.0,90,0.00,,,0.00,,2013-03-15 08:22:00,
2013-03-15 03:32:00,28.0,25.0,-100.00,NNE,30,11.0,14.0,90,0.00,,,0.00,,2013-03-15 08:32:00,
2013-03-15 03:42:00,28.0,27.0,-100.00,NNE,20,10.0,12.0,91,0.00,,,0.00,,2013-03-15 08:42:00,
2013-03-15 03:52:00,28.0,27.0,-100.00,NNE,30,7.0,12.0,91,0.00,,,0.00,,2013-03-15 08:52:00,
2013-03-15 04:02:00,28.0,27.0,-100.00,NE,35,11.0,14.0,91,0.00,,,0.00,,2013-03-15 09:02:00,
2013-03-15 04:12:00,29.0,27.0,-100.00,NE,40,9.0,14.0,91,0.00,,,0.00,,2013-03-15 09:12:00,
2013-03-15 04:22:00,29.0,27.0,-100.00,NE,55,7.0,11.0,91,0.00,,,0.00,,2013-03-15 09:22:00,
2013-03-15 04:33:00,29.0,27.0,-100.00,NE,45,6.0,11.0,91,0.00,,,0.00,,2013-03-15 09:33:00,
2013-03-15 04:43:00,29.0,27.0,-100.00,NE,55,9.0,12.0,91,0.00,,,0.00,,2013-03-15 09:43:00,
2013-03-15 04:52:00,29.0,27.0,-100.00,NE,50,8.0,12.0,91,0.00,,,0.00,,2013-03-15 09:52:00,
2013-03-15 05:03:00,29.0,27.0,-100.00,NE,50,7.0,11.0,91,0.00,,,0.00,,2013-03-15 10:03:00,
2013-03-15 05:12:00,29.0,27.0,-100.00,NE,55,8.0,12.0,92,0.00,,,0.00,,2013-03-15 10:12:00,
2013-03-15 05:23:00,29.0,27.0,-100.00,NE,50,9.0,12.0,92,0.00,,,0.00,,2013-03-15 10:23:00,
2013-03-15 05:32:00,29.0,27.0,-100.00,NE,45,9.0,14.0,92,0.00,,,0.00,,2013-03-15 10:32:00,
2013-03-15 05:42:00,29.0,27.0,-100.00,NE,50,6.0,12.0,92,0.00,,,0.00,,2013-03-15 10:42:00,
2013-03-15 05:52:00,29.0,27.0,-100.00,NE,50,7.0,13.0,92,0.00,,,0.00,,2013-03-15 10:52:00,
2013-03-15 06:02:00,29.0,27.0,-100.00,NNE,30,5.0,10.0,92,0.00,,,0.00,,2013-03-15 11:02:00,
2013-03-15 06:12:00,29.0,27.0,-100.00,NE,40,3.0,7.0,92,0.00,,,0.00,,2013-03-15 11:12:00,
2013-03-15 06:22:00,29.0,27.0,-100.00,NNE,15,3.0,9.0,92,0.00,,,0.00,,2013-03-15 11:22:00,
2013-03-15 06:32:00,29.0,27.0,-100.00,NE,35,4.0,6.0,92,0.00,,,0.00,,2013-03-15 11:32:00,
2013-03-15 06:42:00,29.0,27.0,-100.00,NE,45,4.0,6.0,92,0.00,,,0.00,,2013-03-15 11:42:00,
2013-03-15 06:52:00,29.0,27.0,-100.00,NE,45,6.0,7.0,92,0.00,,,0.00,,2013-03-15 11:52:00,
2013-03-15 07:02:00,29.0,27.0,-100.00,NE,50,7.0,9.0,93,0.00,,,0.00,,2013-03-15 12:02:00,
2013-03-15 07:12:00,29.0,27.0,-100.00,NE,45,7.0,9.0,93,0.00,,,0.00,,2013-03-15 12:12:00,
2013-03-15 07:22:00,28.0,27.0,-100.00,NE,55,7.0,12.0,93,0.00,,,0.00,,2013-03-15 12:22:00,
2013-03-15 07:32:00,28.0,27.0,-100.00,NE,50,7.0,11.0,93,0.00,,,0.00,,2013-03-15 12:32:00,
2013-03-15 07:42:00,28.0,27.0,-100.00,ENE,60,9.0,13.0,93,0.00,,,0.00,,2013-03-15 12:42:00,
2013-03-15 07:52:00,28.0,27.0,-100.00,ENE,60,7.0,12.0,93,0.00,,,0.00,,2013-03-15 12:52:00,
2013-03-15 08:02:00,28.0,27.0,-100.00,NE,50,9.0,12.0,93,0.00,,,0.00,,2013-03-15 13:02:00,
2013-03-15 08:12:00,28.0,27.0,-100.00,NE,45,9.0,12.0,93,0.00,,,0.00,,2013-03-15 13:12:00,
2013-03-15 08:22:00,28.0,27.0,-100.00,NE,45,9.0,13.0,93,0.00,,,0.00,,2013-03-15 13:22:00,
2013-03-15 08:32:00,28.0,27.0,-100.00,NE,50,12.0,16.0,93,0.00,,,0.00,,2013-03-15 13:32:00,
2013-03-15 08:42:00,28.0,27.0,-100.00,NNE,30,8.0,16.0,93,0.00,,,0.00,,2013-03-15 13:42:00,
2013-03-15 08:52:00,28.0,27.0,-100.00,NE,40,6.0,10.0,93,0.00,,,0.00,,2013-03-15 13:52:00,
2013-03-15 09:02:00,28.0,27.0,-100.00,NE,50,8.0,10.0,93,0.00,,,0.00,,2013-03-15 14:02:00,
2013-03-15 09:12:00,28.0,27.0,-100.00,NE,50,7.0,10.0,93,0.00,,,0.00,,2013-03-15 14:12:00,
2013-03-15 09:22:00,28.0,27.0,-100.00,NE,50,10.0,12.0,93,0.00,,,0.00,,2013-03-15 14:22:00,
2013-03-15 09:32:00,28.0,27.0,-100.00,NE,55,9.0,12.0,93,0.00,,,0.00,,2013-03-15 14:32:00,
2013-03-15 09:42:00,28.0,27.0,-100.00,NE,45,9.0,12.0,92,0.00,,,0.00,,2013-03-15 14:42:00,
2013-03-15 09:52:00,28.0,27.0,-100.00,NE,55,9.0,12.0,92,0.00,,,0.00,,2013-03-15 14:52:00,
2013-03-15 10:02:00,28.0,27.0,-100.00,NE,50,10.0,14.0,92,0.00,,,0.00,,2013-03-15 15:02:00,
2013-03-15 10:12:00,28.0,27.0,-100.00,NE,50,8.0,13.0,91,0.00,,,0.00,,2013-03-15 15:12:00,
2013-03-15 10:22:00,28.0,27.0,-100.00,NE,55,8.0,15.0,91,0.00,,,0.00,,2013-03-15 15:22:00,
2013-03-15 10:33:00,28.0,25.0,-100.00,ENE,70,9.0,16.0,90,0.00,,,0.00,,2013-03-15 15:33:00,
2013-03-15 10:42:00,29.0,27.0,-100.00,ENE,65,7.0,12.0,90,0.00,,,0.00,,2013-03-15 15:42:00,
2013-03-15 10:52:00,28.0,25.0,-100.00,ENE,70,7.0,12.0,88,0.00,,,0.00,,2013-03-15 15:52:00,
2013-03-15 11:02:00,29.0,25.0,-100.00,ENE,65,7.0,11.0,88,0.00,,,0.00,,2013-03-15 16:02:00,
2013-03-15 11:12:00,29.0,25.0,-100.00,ENE,75,6.0,11.0,87,0.00,,,0.00,,2013-03-15 16:12:00,
2013-03-15 11:22:00,29.0,27.0,-100.00,ENE,75,8.0,11.0,87,0.00,,,0.00,,2013-03-15 16:22:00,
2013-03-15 11:32:00,29.0,25.0,-100.00,ENE,60,9.0,11.0,86,0.00,,,0.00,,2013-03-15 16:32:00,
2013-03-15 11:42:00,29.0,25.0,-100.00,NE,55,7.0,12.0,86,0.00,,,0.00,,2013-03-15 16:42:00,
2013-03-15 11:52:00,29.0,25.0,-100.00,NE,50,9.0,12.0,86,0.00,,,0.00,,2013-03-15 16:52:00,
2013-03-15 12:02:00,29.0,25.0,-100.00,NE,55,9.0,13.0,86,0.00,,,0.00,,2013-03-15 17:02:00,
2013-03-15 12:12:00,30.0,27.0,-100.00,NE,50,9.0,14.0,85,0.00,,,0.00,,2013-03-15 17:12:00,
2013-03-15 12:22:00,30.0,27.0,-100.00,NE,50,9.0,12.0,85,0.00,,,0.00,,2013-03-15 17:22:00,
2013-03-15 12:32:00,30.0,27.0,-100.00,NE,50,9.0,13.0,85,0.00,,,0.00,,2013-03-15 17:32:00,
2013-03-15 12:42:00,30.0,27.0,-100.00,NE,55,10.0,13.0,84,0.00,,,0.00,,2013-03-15 17:42:00,
2013-03-15 12:52:00,30.0,27.0,-100.00,NE,55,9.0,12.0,84,0.00,,,0.00,,2013-03-15 17:52:00,
2013-03-15 13:02:00,30.0,27.0,-100.00,ENE,70,6.0,11.0,83,0.00,,,0.00,,2013-03-15 18:02:00,
2013-03-15 13:12:00,30.0,25.0,-100.00,NE,50,7.0,11.0,83,0.00,,,0.00,,2013-03-15 18:12:00,
2013-03-15 13:22:00,31.0,27.0,-100.00,ENE,60,7.0,12.0,82,0.00,,,0.00,,2013-03-15 18:22:00,
2013-03-15 13:32:00,30.0,25.0,-100.00,ENE,65,9.0,13.0,82,0.00,,,0.00,,2013-03-15 18:32:00,
2013-03-15 13:42:00,31.0,25.0,-100.00,ENE,60,9.0,11.0,81,0.00,,,0.00,,2013-03-15 18:42:00,
2013-03-15 13:52:00,30.0,25.0,-100.00,ENE,70,9.0,14.0,81,0.00,,,0.00,,2013-03-15 18:52:00,
2013-03-15 14:02:00,30.0,25.0,-100.00,ENE,65,10.0,13.0,81,0.00,,,0.00,,2013-03-15 19:02:00,
2013-03-15 14:12:00,30.0,25.0,-100.00,East,90,7.0,12.0,81,0.00,,,0.00,,2013-03-15 19:12:00,
2013-03-15 14:22:00,31.0,25.0,-100.00,NE,55,10.0,13.0,81,0.00,,,0.00,,2013-03-15 19:22:00,
2013-03-15 14:32:00,31.0,25.0,-100.00,ENE,75,6.0,12.0,81,0.00,,,0.00,,2013-03-15 19:32:00,
2013-03-15 14:42:00,30.0,25.0,-100.00,East,95,9.0,12.0,81,0.00,,,0.00,,2013-03-15 19:42:00,
2013-03-15 14:52:00,30.0,25.0,-100.00,ENE,75,8.0,12.0,81,0.00,,,0.00,,2013-03-15 19:52:00,
2013-03-15 15:02:00,30.0,25.0,-100.00,ENE,70,7.0,11.0,80,0.00,,,0.00,,2013-03-15 20:02:00,
2013-03-15 15:12:00,30.0,25.0,-100.00,East,95,6.0,12.0,80,0.00,,,0.00,,2013-03-15 20:12:00,
2013-03-15 15:22:00,30.0,25.0,-100.00,East,80,7.0,10.0,80,0.00,,,0.00,,2013-03-15 20:22:00,
2013-03-15 15:31:00,30.0,25.0,-100.00,East,95,9.0,11.0,81,0.00,,,0.00,,2013-03-15 20:31:00,
2013-03-15 15:42:00,29.0,25.0,-100.00,East,95,11.0,16.0,84,0.00,,,0.00,,2013-03-15 20:42:00,
2013-03-15 15:52:00,29.0,25.0,-100.00,East,100,11.0,16.0,85,0.00,,,0.00,,2013-03-15 20:52:00,
2013-03-15 16:02:00,29.0,25.0,-100.00,East,100,11.0,19.0,86,0.00,,,0.00,,2013-03-15 21:02:00,
2013-03-15 16:12:00,29.0,25.0,-100.00,East,95,11.0,16.0,87,0.00,,,0.00,,2013-03-15 21:12:00,
2013-03-15 16:22:00,29.0,27.0,-100.00,East,90,8.0,14.0,90,0.00,,,0.00,,2013-03-15 21:22:00,
2013-03-15 16:32:00,28.0,27.0,-100.00,ENE,65,8.0,11.0,90,0.00,,,0.00,,2013-03-15 21:32:00,
2013-03-15 16:43:00,29.0,27.0,-100.00,ENE,70,9.0,11.0,90,0.00,,,0.00,,2013-03-15 21:43:00,
2013-03-15 16:52:00,29.0,27.0,-100.00,NE,50,6.0,9.0,91,0.00,,,0.00,,2013-03-15 21:52:00,
2013-03-15 17:03:00,29.0,27.0,-100.00,NE,55,8.0,11.0,91,0.00,,,0.00,,2013-03-15 22:03:00,
2013-03-15 17:13:00,29.0,27.0,-100.00,NE,55,7.0,11.0,91,0.00,,,0.00,,2013-03-15 22:13:00,
2013-03-15 17:22:00,28.0,27.0,-100.00,ENE,70,8.0,11.0,91,0.00,,,0.00,,2013-03-15 22:22:00,
2013-03-15 17:32:00,28.0,27.0,-100.00,ENE,65,9.0,14.0,91,0.00,,,0.01,,2013-03-15 22:32:00,
2013-03-15 17:42:00,28.0,27.0,-100.00,NE,50,11.0,15.0,91,0.00,,,0.01,,2013-03-15 22:42:00,
2013-03-15 17:52:00,28.0,25.0,-100.00,NE,45,11.0,14.0,91,0.00,,,0.01,,2013-03-15 22:52:00,
2013-03-15 18:02:00,27.0,25.0,-100.00,NE,55,11.0,14.0,92,0.00,,,0.01,,2013-03-15 23:02:00,
2013-03-15 18:12:00,27.0,25.0,-100.00,ENE,65,8.0,13.0,92,0.00,,,0.01,,2013-03-15 23:12:00,
2013-03-15 18:22:00,27.0,25.0,-100.00,NE,45,10.0,13.0,93,0.00,,,0.01,,2013-03-15 23:22:00,
2013-03-15 18:32:00,27.0,25.0,-100.00,NE,45,10.0,13.0,93,0.00,,,0.01,,2013-03-15 23:32:00,
2013-03-15 18:42:00,27.0,25.0,-100.00,NE,35,10.0,12.0,93,0.00,,,0.01,,2013-03-15 23:42:00,
2013-03-15 18:52:00,27.0,25.0,-100.00,NE,55,10.0,13.0,93,0.00,,,0.01,,2013-03-15 23:52:00,
2013-03-15 19:02:00,26.0,25.0,-100.00,ENE,60,9.0,13.0,93,0.00,,,0.01,,2013-03-16 00:02:00,
2013-03-15 19:12:00,26.0,25.0,-100.00,ENE,70,7.0,12.0,93,0.00,,,0.01,,2013-03-16 00:12:00,
2013-03-15 19:22:00,26.0,25.0,-100.00,ENE,60,11.0,16.0,93,0.00,,,0.01,,2013-03-16 00:22:00,
2013-03-15 19:32:00,26.0,23.0,-100.00,NE,50,11.0,15.0,93,0.00,,,0.01,,2013-03-16 00:32:00,
2013-03-15 19:42:00,25.0,23.0,-100.00,NE,55,12.0,14.0,92,0.00,,,0.01,,2013-03-16 00:42:00,
2013-03-15 19:52:00,25.0,23.0,-100.00,ENE,70,8.0,13.0,92,0.00,,,0.01,,2013-03-16 00:52:00,
2013-03-15 20:02:00,25.0,23.0,-100.00,NE,45,10.0,14.0,91,0.00,,,0.01,,2013-03-16 01:02:00,
2013-03-15 20:12:00,25.0,23.0,-100.00,NE,55,12.0,16.0,91,0.00,,,0.01,,2013-03-16 01:12:00,
2013-03-15 20:21:00,25.0,23.0,-100.00,NE,55,11.0,16.0,91,0.00,,,0.01,,2013-03-16 01:21:00,
2013-03-15 20:32:00,24.0,23.0,-100.00,NE,50,10.0,13.0,91,0.00,,,0.01,,2013-03-16 01:32:00,
2013-03-15 20:42:00,24.0,21.0,-100.00,NE,50,12.0,17.0,91,0.00,,,0.01,,2013-03-16 01:42:00,
2013-03-15 20:52:00,24.0,21.0,-100.00,ENE,60,8.0,16.0,91,0.00,,,0.01,,2013-03-16 01:52:00,
2013-03-15 21:02:00,24.0,21.0,-100.00,ENE,70,8.0,11.0,91,0.00,,,0.01,,2013-03-16 02:02:00,
2013-03-15 21:12:00,24.0,21.0,-100.00,NE,55,7.0,11.0,91,0.00,,,0.01,,2013-03-16 02:12:00,
2013-03-15 21:22:00,23.0,21.0,-100.00,NE,55,8.0,12.0,92,0.00,,,0.01,,2013-03-16 02:22:00,
2013-03-15 21:32:00,23.0,21.0,-100.00,NE,45,8.0,11.0,92,0.00,,,0.01,,2013-03-16 02:32:00,
2013-03-15 21:42:00,23.0,21.0,-100.00,NE,45,7.0,11.0,92,0.00,,,0.01,,2013-03-16 02:42:00,
2013-03-15 21:52:00,23.0,21.0,-100.00,ENE,70,7.0,12.0,92,0.00,,,0.01,,2013-03-16 02:52:00,
2013-03-15 22:02:00,23.0,21.0,-100.00,ENE,60,7.0,10.0,92,0.00,,,0.01,,2013-03-16 03:02:00,
2013-03-15 22:12:00,23.0,21.0,-100.00,ENE,60,7.0,11.0,92,0.00,,,0.01,,2013-03-16 03:12:00,
2013-03-15 22:22:00,23.0,21.0,-100.00,ENE,60,7.0,12.0,92,0.00,,,0.01,,2013-03-16 03:22:00,
2013-03-15 22:32:00,23.0,21.0,-100.00,ENE,65,7.0,12.0,92,0.00,,,0.01,,2013-03-16 03:32:00,
2013-03-15 22:43:00,23.0,21.0,-100.00,NE,55,6.0,11.0,92,0.00,,,0.01,,2013-03-16 03:43:00,
2013-03-15 22:52:00,23.0,21.0,-100.00,ENE,60,7.0,11.0,92,0.00,,,0.01,,2013-03-16 03:52:00,
2013-03-15 23:02:00,22.0,21.0,-100.00,ENE,70,9.0,11.0,92,0.00,,,0.01,,2013-03-16 04:02:00,
2013-03-15 23:12:00,22.0,21.0,-100.00,ENE,60,6.0,11.0,91,0.00,,,0.01,,2013-03-16 04:12:00,
2013-03-15 23:22:00,22.0,19.0,-100.00,NE,45,7.0,12.0,91,0.00,,,0.01,,2013-03-16 04:22:00,
2013-03-15 23:32:00,22.0,19.0,-100.00,NE,45,9.0,12.0,90,0.00,,,0.01,,2013-03-16 04:32:00,
2013-03-15 23:42:00,22.0,19.0,-100.00,NE,55,8.0,12.0,90,0.00,,,0.01,,2013-03-16 04:42:00,
2013-03-15 23:52:00,22.0,19.0,-100.00,NE,50,7.0,11.0,90,0.00,,,0.01,,2013-03-16 04:52:00,